Theta_e
313 310 308 307 306 306 307 308 308 307 307 308 309 310 311 310 312 317 314 312 308 309 309 314 316 315 316 315 313 311 306 307 311 314 313 315 313 316 316 317 317 317 317 339 357
313 313 309 307 307 307 307 307 307 307 307 308 309 310 311 311 316 316 311 310 310 310 311 313 314 314 314 313 314 308 303 307 310 311 311 313 313 314 314 315 316 316 319 325 345
312 312 313 308 307 307 307 307 307 307 309 308 309 310 310 312 318 315 310 310 310 311 314 314 314 315 314 314 313 310 307 307 310 311 312 311 312 313 313 313 314 315 315 315 319
312 309 312 311 307 307 307 307 307 310 309 307 308 310 310 314 317 315 312 312 314 314 315 315 315 314 311 311 313 312 312 311 311 312 311 309 312 312 313 313 313 314 314 315 315
312 309 308 311 307 307 308 307 307 311 310 310 309 308 311 318 321 316 314 313 314 314 315 315 315 314 311 311 313 312 311 313 314 314 313 314 312 312 312 314 314 314 314 314 315
313 308 307 307 306 307 308 307 307 312 311 311 312 308 310 315 314 314 314 314 314 314 315 315 315 315 314 312 311 313 313 313 314 314 314 313 312 313 314 314 313 313 314 314 314
313 308 306 306 306 307 307 307 311 313 313 313 311 309 310 315 315 315 314 314 315 315 315 315 316 315 315 311 314 313 312 312 312 314 312 313 312 313 315 314 314 314 315 314 314
315 308 306 306 307 308 308 314 315 315 314 313 316 318 312 317 317 316 315 314 314 314 314 315 315 316 316 315 314 312 311 311 311 313 314 313 313 313 314 314 314 314 314 314 314
316 307 306 307 311 313 314 315 313 313 314 317 317 317 318 316 316 317 316 315 314 314 314 314 316 316 315 313 311 311 312 313 314 314 313 312 313 313 314 314 313 314 314 314 314
317 309 306 308 313 315 316 315 313 315 313 315 317 317 316 315 316 315 315 315 314 314 314 314 315 313 311 311 316 314 314 314 314 315 315 315 315 314 315 314 313 313 313 314 314
316 314 306 306 313 314 315 314 312 313 313 313 313 314 314 315 315 315 315 315 315 315 313 315 312 312 313 313 315 316 316 317 316 316 315 316 316 316 315 314 311 312 313 314 315
315 315 306 308 312 314 314 311 313 313 313 313 314 314 315 316 315 315 315 315 315 313 313 312 313 313 314 315 316 316 317 317 317 317 316 316 317 316 314 313 315 315 316 316 315
316 316 308 309 314 315 311 312 314 315 313 315 318 317 316 315 315 315 316 316 314 313 313 312 313 314 314 314 315 315 315 315 315 316 316 316 318 317 317 315 317 317 317 317 317
315 316 308 309 312 310 309 311 312 318 316 318 319 314 312 313 314 316 315 314 314 314 313 313 313 314 315 315 314 315 315 316 316 316 317 319 320 318 317 317 315 316 316 317 317
314 316 310 310 313 311 311 310 312 318 314 315 312 312 313 313 314 315 313 312 313 315 314 316 315 315 315 315 319 320 318 317 317 316 314 317 322 318 317 318 316 316 317 317 318
316 316 312 311 311 311 312 316 317 318 316 313 311 311 312 313 313 314 313 313 315 317 317 314 314 316 317 319 318 316 316 317 317 316 320 317 318 317 316 316 316 316 316 317 317
316 314 312 313 311 312 317 317 317 313 312 311 311 311 312 312 312 314 313 312 314 312 314 315 317 316 317 316 315 314 315 317 320 319 321 317 318 317 316 316 316 315 316 317 317
317 316 315 314 314 312 317 314 316 314 312 312 312 311 312 312 312 314 313 314 315 315 310 317 315 314 315 314 314 312 313 312 319 314 317 318 321 318 315 316 316 317 316 317 317
318 317 317 316 315 314 317 315 313 314 314 313 312 312 311 312 313 311 311 314 314 315 313 317 316 314 314 314 313 311 312 314 317 317 318 315 314 314 314 314 315 315 316 317 317
318 317 316 317 316 314 313 315 315 316 316 313 312 313 312 311 312 310 313 315 315 316 314 315 316 315 314 312 313 312 313 313 318 321 320 315 314 314 315 316 315 315 315 317 317
318 318 318 318 317 316 312 313 315 317 317 315 313 312 311 311 311 311 313 313 314 316 313 314 313 315 314 314 312 311 312 317 317 318 317 318 315 311 314 314 314 314 315 315 316
317 315 319 318 316 315 314 316 318 319 317 313 312 311 311 310 310 311 312 312 313 315 314 312 313 315 314 313 311 311 314 315 318 320 319 316 317 314 311 313 313 313 314 314 315
317 317 318 318 314 313 315 318 318 319 315 313 312 311 310 311 309 310 312 314 314 313 313 312 312 314 312 310 312 316 315 316 318 319 319 320 318 314 314 314 314 314 315 316 318
316 313 316 316 315 315 314 317 319 318 317 315 313 311 310 310 309 310 313 313 313 314 316 312 311 316 316 314 311 312 313 313 315 316 316 317 317 317 316 316 315 315 315 316 316
317 315 316 312 314 314 314 316 317 318 318 315 310 312 312 311 311 314 313 312 312 316 312 310 313 314 314 313 313 313 314 314 313 315 316 317 317 315 314 314 310 309 311 315 316
316 315 315 314 315 313 313 315 316 317 316 314 315 312 310 313 313 313 313 313 312 313 312 310 313 314 314 313 313 314 314 310 311 310 311 312 311 309 310 308 309 308 307 309 314
315 315 314 313 312 313 313 315 315 315 316 316 315 311 310 313 310 312 314 312 311 316 312 313 312 315 313 312 313 315 311 307 308 308 308 309 308 308 307 306 306 305 305 306 309
Wind_Speed
25 22 19 17 15 14 13 14 16 17 18 17 17 17 16 13 8 7 6 8 10 11 7 4 6 10 5 7 5 6 2 2 4 4 6 23 8 25 20 17 25 19 23 9 32
26 22 19 16 14 12 13 14 16 17 18 16 17 16 14 10 4 5 10 10 10 12 10 8 9 12 3 3 5 3 3 6 6 6 9 16 13 30 17 18 12 30 19 16 1
28 23 19 15 13 11 12 14 16 18 17 14 16 14 11 9 2 2 8 10 11 8 10 11 12 11 5 10 6 3 6 9 17 27 28 18 15 23 9 5 15 21 30 27 16
30 26 20 16 12 11 11 13 16 17 17 12 14 12 11 6 3 1 9 12 10 11 12 16 17 8 3 4 7 4 10 12 14 26 16 7 14 11 14 13 18 18 22 26 28
32 27 21 17 13 10 11 12 14 15 16 16 15 12 8 4 1 2 7 8 11 10 13 15 12 13 5 8 15 3 5 19 20 20 15 13 10 9 23 24 20 24 22 25 27
34 28 22 18 13 9 11 12 13 14 15 17 17 9 5 2 2 5 12 7 6 7 6 8 8 15 5 8 4 12 21 22 19 23 19 6 10 15 34 35 23 27 26 24 28
37 27 21 18 13 12 13 13 12 13 13 14 14 8 3 3 2 8 11 8 12 13 10 7 5 8 11 9 12 22 12 15 11 12 9 14 11 14 35 34 36 33 35 26 25
38 26 20 16 14 13 13 13 12 14 10 9 10 11 3 3 7 10 9 8 11 12 13 13 11 7 6 9 12 7 5 5 6 5 13 2 17 25 28 29 34 30 32 33 24
38 27 19 15 13 13 13 14 18 12 5 9 7 6 3 6 9 7 11 11 12 17 16 15 11 10 6 2 5 3 5 9 10 5 9 7 18 12 25 27 29 31 30 32 32
39 29 18 13 10 12 12 15 20 2 7 6 1 6 4 9 14 10 11 14 19 20 16 11 5 2 3 4 8 6 7 7 8 13 15 13 18 13 16 17 25 32 33 30 34
37 30 17 13 9 12 12 15 16 3 20 13 13 11 19 10 12 17 17 19 21 13 4 13 2 7 13 13 17 16 18 21 20 17 10 18 21 18 14 16 14 22 31 24 25
36 32 17 14 8 10 14 15 9 11 11 19 16 21 24 21 22 24 19 17 11 8 5 4 7 14 14 15 16 20 21 23 24 20 18 16 24 20 6 10 20 22 31 34 29
37 33 16 10 5 10 16 11 13 23 3 12 6 9 8 12 14 22 12 6 8 5 6 7 11 12 13 12 13 13 12 14 19 9 9 13 30 17 16 12 23 30 31 34 35
38 32 16 8 3 13 16 16 20 17 4 6 1 3 20 20 4 19 26 18 8 7 7 11 8 11 14 16 13 19 11 17 20 15 12 7 21 19 9 19 17 24 30 34 35
42 28 11 13 6 12 16 18 13 10 4 9 8 4 21 16 13 12 19 16 7 7 4 7 16 15 10 8 4 7 14 12 7 9 8 11 8 27 11 16 16 17 27 33 34
38 20 6 16 12 13 17 13 5 5 3 4 5 11 10 12 18 16 16 18 5 3 3 12 24 5 6 3 3 5 6 8 4 4 10 8 13 28 12 14 17 15 25 32 31
33 10 3 17 17 17 17 8 5 5 7 8 7 8 10 11 21 8 10 12 0 5 7 13 6 5 4 4 2 2 3 4 3 0 9 4 12 20 8 10 13 14 25 35 36
27 5 5 14 19 16 17 5 7 8 2 4 6 9 4 11 11 8 16 13 1 3 2 3 9 5 2 10 8 10 8 4 5 3 7 1 7 6 10 14 24 26 27 31 28
20 5 7 16 16 13 8 5 2 5 6 5 4 5 3 9 5 8 13 7 4 4 2 4 8 16 20 22 4 5 3 6 6 12 9 4 7 10 15 13 11 18 18 21 19
20 8 17 20 16 10 5 3 4 7 12 3 4 3 8 11 8 8 5 7 4 3 9 6 14 11 11 7 10 10 5 1 2 4 5 5 7 8 5 4 6 8 5 12 20
16 3 19 18 5 7 3 5 5 22 23 5 5 5 7 8 5 4 6 17 8 7 13 6 7 11 9 7 6 2 2 3 3 4 4 4 5 7 8 7 8 8 16 16 21
16 3 13 17 8 4 3 6 18 14 24 4 4 4 5 8 5 8 12 8 22 3 2 2 4 7 10 22 11 10 10 8 5 5 5 4 14 6 9 5 6 8 16 14 18
20 7 12 14 4 4 7 9 9 13 8 5 4 5 5 5 9 6 12 4 21 5 5 6 4 5 7 5 5 0 1 6 9 4 10 6 9 3 5 8 12 11 16 24 19
9 4 10 8 21 1 4 6 7 16 9 13 15 7 8 11 7 8 5 6 20 15 10 9 2 6 7 12 9 18 19 14 11 6 14 19 29 15 13 7 9 18 25 28 27
6 3 6 4 9 14 8 8 12 8 4 18 4 8 15 11 5 4 17 22 17 1 4 4 5 6 13 20 21 22 23 7 6 7 8 17 19 13 13 9 8 19 22 24 29
6 4 7 12 14 8 6 4 9 13 14 8 9 14 11 3 4 19 18 17 6 3 3 3 5 8 14 20 16 18 8 2 5 9 13 18 23 11 9 15 17 21 20 22 29
9 6 4 7 5 6 4 9 19 21 14 24 18 12 7 6 25 29 31 26 10 5 6 2 4 4 8 12 20 7 7 2 10 11 14 17 18 9 16 21 22 32 25 21 30
Wind_Direction
2 358 356 358 1 2 2 1 357 355 352 348 346 345 342 350 1 39 32 3 360 349 333 350 41 29 289 273 254 232 47 299 279 307 269 307 314 304 318 313 332 327 350 17 182
3 358 354 352 354 355 355 355 354 349 348 346 346 345 342 0 60 47 27 14 1 18 30 38 34 9 340 261 246 144 140 231 217 248 273 285 288 299 317 322 330 328 337 16 135
3 359 353 347 345 348 349 349 348 349 344 343 350 348 347 358 80 96 28 19 21 32 38 13 359 326 295 299 271 244 211 245 269 266 265 268 280 296 295 302 311 314 320 320 318
1 358 354 347 338 340 344 347 347 350 350 346 356 351 344 5 136 95 15 20 44 42 24 6 342 0 335 330 325 278 256 258 280 272 284 273 274 286 274 283 301 311 321 316 312
1 357 354 349 342 339 343 345 349 350 350 351 339 344 353 4 335 15 356 34 40 33 10 353 1 357 355 304 337 239 323 318 310 312 300 299 301 284 291 295 294 298 300 301 303
3 0 359 355 351 347 346 343 343 344 347 347 345 338 343 323 3 352 344 12 9 12 13 10 328 339 311 331 338 311 314 307 316 313 315 303 292 306 284 276 297 298 298 299 296
6 3 3 3 1 355 354 351 343 337 341 352 1 11 330 340 326 317 331 327 310 295 285 282 316 314 315 320 315 312 316 316 303 299 287 316 307 264 269 283 286 288 292 292 294
5 4 6 10 6 1 0 0 350 334 335 338 346 350 283 2 236 284 301 315 309 313 279 282 277 267 270 289 315 313 312 322 280 322 284 180 267 267 271 272 272 274 280 291 286
5 2 3 11 18 15 12 8 355 331 359 340 326 342 292 329 260 279 245 266 285 292 285 279 253 237 268 9 349 316 262 272 293 285 265 180 262 284 280 267 264 270 269 280 287
4 2 358 4 11 24 7 5 358 106 2 344 270 318 277 313 303 307 270 278 292 297 279 229 247 196 342 87 263 260 278 277 277 300 301 287 277 282 278 265 258 263 260 268 282
0 359 356 352 350 2 4 0 5 341 318 281 268 270 279 308 310 301 285 273 278 286 224 273 158 233 244 223 241 255 262 269 268 282 280 289 284 283 275 274 262 268 266 260 277
359 359 356 353 349 3 11 2 14 324 308 301 275 263 271 285 285 301 299 256 248 224 255 346 257 247 247 253 246 249 258 269 271 270 264 272 278 286 259 261 270 271 272 275 277
360 356 354 358 14 6 17 10 348 328 308 301 273 263 299 310 269 304 338 259 229 251 256 230 254 276 272 282 286 277 281 289 285 289 269 289 277 271 273 257 261 265 268 275 273
355 350 351 12 40 16 8 357 338 343 59 317 307 39 341 349 309 35 14 17 22 329 289 271 280 248 269 269 278 282 292 291 290 292 287 187 281 263 267 267 249 251 250 257 261
354 348 6 8 357 353 347 343 322 330 59 316 18 15 349 7 6 8 3 1 326 303 331 286 312 288 264 262 355 300 310 299 304 298 294 234 267 276 223 256 250 251 254 260 257
356 355 36 30 18 352 354 351 307 44 351 16 45 345 2 358 354 346 7 5 4 328 259 290 296 244 275 67 92 23 357 311 241 154 259 203 218 267 258 258 251 241 240 250 257
357 12 67 22 9 2 355 349 46 69 337 346 341 335 320 358 345 360 358 343 287 4 332 327 319 324 68 348 302 35 7 319 296 229 255 188 241 262 270 291 263 246 239 248 253
358 11 23 12 4 2 349 48 63 357 63 296 323 312 348 358 330 353 342 325 117 194 294 322 326 358 323 303 281 263 184 183 271 238 294 68 246 252 222 246 266 251 244 252 250
2 12 19 4 347 353 348 50 226 323 323 298 319 286 258 328 294 333 321 279 246 171 184 296 270 302 293 283 251 276 162 226 251 261 256 235 274 284 256 260 282 272 242 245 266
2 65 12 345 329 318 63 266 321 303 311 260 280 271 310 323 320 328 308 259 278 152 155 235 291 286 304 328 264 201 190 337 187 255 248 255 243 235 283 278 305 315 280 256 269
6 59 10 358 68 30 108 241 290 320 319 275 253 262 261 292 286 280 256 292 287 207 200 188 213 279 301 220 224 324 201 179 210 230 263 288 245 217 214 225 260 270 284 298 301
355 349 345 0 51 7 350 317 318 317 329 319 277 257 267 299 286 302 279 280 309 260 255 270 260 272 259 273 278 256 262 238 238 223 221 261 264 201 193 246 299 293 308 336 324
338 311 342 17 60 327 303 309 301 326 316 330 294 260 288 278 314 267 297 287 311 164 204 187 229 293 318 351 18 105 155 231 239 237 239 265 264 326 345 331 337 340 344 332 356
342 354 344 360 355 305 312 291 314 321 314 342 302 347 325 306 275 282 296 291 309 284 298 151 247 229 255 279 287 286 282 276 266 248 268 249 275 268 285 317 325 321 320 320 318
17 353 21 311 321 314 297 291 333 334 257 322 320 328 317 309 319 260 304 313 317 31 72 154 241 234 247 266 276 271 272 267 277 266 266 284 272 298 291 288 299 304 306 312 312
5 353 316 290 303 303 330 303 321 317 328 301 318 318 307 276 250 307 306 307 288 54 182 186 273 258 276 278 271 271 223 245 277 273 266 264 270 298 322 312 307 304 305 302 301
321 317 312 268 285 309 276 328 310 315 312 323 308 315 298 276 314 291 285 281 239 204 186 247 298 295 287 299 305 277 149 336 285 292 277 270 273 321 318 307 295 291 285 281 278